TimeGMT,TemperatureF,Dew PointF,Humidity,Sea Level PressureIn,VisibilityMPH,Wind Direction,Wind SpeedMPH,Gust SpeedMPH,PrecipitationIn,Events,Conditions,WindDirDegrees,DateUTC
12:00 AM,48,47,93,30.37,,South,15.7,,,,,180,2013-01-05 00:00:00
6:00 AM,47,44,84,30.31,19,South,13.4,,,,Mostly Cloudy,170,2013-01-05 06:00:00
6:00 AM,46.4,44.6,93,30.27,6.2,South,13.8,-,N/A,,Mostly Cloudy,170,2013-01-05 06:00:00
6:30 AM,46.4,44.6,93,30.27,6.2,SSE,13.8,-,N/A,,Mostly Cloudy,160,2013-01-05 06:30:00
7:00 AM,46.4,44.6,93,30.27,6.2,SSE,12.7,-,N/A,,Mostly Cloudy,160,2013-01-05 07:00:00
7:30 AM,46.4,44.6,93,30.27,6.2,SSE,13.8,-,N/A,,Mostly Cloudy,160,2013-01-05 07:30:00
8:00 AM,46.4,44.6,93,30.27,6.2,SSE,12.7,-,N/A,,Mostly Cloudy,160,2013-01-05 08:00:00
8:30 AM,46.4,44.6,93,30.27,6.2,SSE,13.8,-,N/A,,Mostly Cloudy,160,2013-01-05 08:30:00
9:00 AM,48.2,46.4,93,30.27,6.2,South,16.1,-,N/A,,Mostly Cloudy,170,2013-01-05 09:00:00
9:30 AM,48.2,46.4,93,30.24,6.2,South,15.0,-,N/A,,Mostly Cloudy,170,2013-01-05 09:30:00
10:00 AM,48.2,46.4,93,30.24,6.2,SSE,18.4,-,N/A,,Mostly Cloudy,160,2013-01-05 10:00:00
10:30 AM,50.0,46.4,87,30.24,6.2,South,19.6,-,N/A,,Mostly Cloudy,170,2013-01-05 10:30:00
11:00 AM,50.0,46.4,87,30.24,6.2,South,20.7,-,N/A,,Mostly Cloudy,170,2013-01-05 11:00:00
11:30 AM,50.0,48.2,94,30.24,3.1,South,18.4,-,N/A,,Light Drizzle,180,2013-01-05 11:30:00
12:00 PM,49,48,97,30.27,2,South,17.9,,,Rain,Light Drizzle,170,2013-01-05 12:00:00
12:00 PM,50.0,48.2,94,30.24,2.2,South,18.4,-,N/A,,Light Drizzle,170,2013-01-05 12:00:00
12:30 PM,50.0,48.2,94,30.21,2.8,South,17.3,29.9,N/A,,Light Drizzle,170,2013-01-05 12:30:00
1:00 PM,50.0,48.2,94,30.21,1.7,South,17.3,32.2,N/A,Rain,Rain,170,2013-01-05 13:00:00
1:30 PM,50.0,48.2,94,30.21,1.9,South,16.1,-,N/A,Rain,Rain,180,2013-01-05 13:30:00
2:00 PM,50.0,50.0,100,30.24,2.8,South,15.0,27.6,N/A,Rain,Light Rain,190,2013-01-05 14:00:00
2:30 PM,50.0,50.0,100,30.24,5.6,SSW,13.8,-,N/A,Rain,Light Rain,210,2013-01-05 14:30:00
3:00 PM,50.0,50.0,100,30.27,5.6,SSW,12.7,-,N/A,Rain,Light Rain,210,2013-01-05 15:00:00
3:30 PM,50.0,50.0,100,30.30,6.2,SW,11.5,-,N/A,,Overcast,230,2013-01-05 15:30:00
4:00 PM,50.0,50.0,100,30.30,6.2,SW,9.2,-,N/A,,Scattered Clouds,220,2013-01-05 16:00:00
4:30 PM,48.2,48.2,100,30.33,0.4,SW,9.2,-,N/A,Fog,Fog,220,2013-01-05 16:30:00
5:00 PM,50.0,50.0,100,30.36,6.2,WSW,11.5,-,N/A,Rain,Light Rain,250,2013-01-05 17:00:00
6:00 PM,47,47,100,30.37,12,West,11.2,,,Rain,Light Rain,280,2013-01-05 18:00:00